Current weather by "City, St" or "zip code"  
 

Current Conditions: Laurence G Hanscom Field Airport, MA

Fair


60.0 F

Last Updated on Sep 18 2020, 1:51 am EDT
Humidity: 65%
Wind Speed: N 3.5 mph
Barometer 29.99 in
Dewpoint: 48.0 F
Visibility: 10.00 mi
Precip: --
Heat Index: NA
Wind Chill: NA
Current conditions at:

Laurence G Hanscom Field Airport, MA (KBED)

Lat: 42.46811 Lon: 71.29463

Local Radar Image active severe weather and emergency alerts image image weather storm and storm spotter reports image weather observation monitoring service image
Local
Radar
Active
Alerts
Storm Reports Obs
Monitoring

Sign-up For Email & Text Message Weather Alert Notification Services



Advertise Here

Observation History for Laurence G Hanscom Field Airport, MA


Time Wind
(mph)
Vis
(mi)
Weather Precip (in) Temperature (F) Relative
Humidity
Wind
Chill
(F)
Heat
Index
(F)
Pressure
Air Dwpt altimeter
(in)
sea level
(mb)
Rmks
1:51 am EDT N 3.5 10.00 Fair -- 60.0 48.0 65% NA NA 29.99 1016.7
12:51 am EDT NE 5.8 10.00 Fair -- 61.0 48.0 63% 61 NA 30.00 1017.0
11:51 pm EDT NE 5.8 10.00 Fair -- 62.0 48.0 60% 62 NA 30.00 1017.1
10:51 pm EDT NE 8.1 10.00 Fair -- 63.0 50.0 63% 63 NA 30.00 1017.1
9:51 pm EDT NE 6.9 10.00 Fair -- 64.0 53.1 68% NA NA 29.99 1016.8
8:51 pm EDT N 6.9 10.00 Mostly Cloudy -- 66.0 54.0 65% NA NA 29.99 1016.8
7:51 pm EDT NW 10.4 10.00 Partly Cloudy -- 65.0 55.9 73% NA NA 29.98 1016.2
6:51 pm EDT SW 4.6 10.00 Fair -- 68.0 55.9 65% NA NA 29.95 1015.4
5:51 pm EDT W 4.6 10.00 Fair -- 72.0 54.0 53% NA NA 29.95 1015.2
4:51 pm EDT SW 8.1 10.00 Fair -- 75.0 54.0 48% NA NA 29.94 1015.1
3:51 pm EDT SW 8.1 10.00 A Few Clouds -- 76.0 52.0 43% NA NA 29.95 1015.4
2:51 pm EDT SW 9.2 10.00 Fair -- 77.0 53.1 43% NA NA 29.96 1015.7
1:51 pm EDT S 6.9 10.00 A Few Clouds -- 76.0 54.0 47% NA NA 29.97 1015.9
12:51 pm EDT W 4.6 10.00 Fair -- 76.0 55.0 48% NA NA 29.98 1016.5
11:51 am EDT W 5.8 10.00 Fair -- 73.0 55.0 53% NA NA 30.00 1016.9
10:51 am EDT SW 8.1 10.00 Fair -- 70.0 55.9 61% NA NA 30.02 1017.7
9:51 am EDT W 8.1 10.00 Fair -- 67.0 55.9 68% NA NA 30.03 1018.0
8:51 am EDT SW 9.2 10.00 Fair -- 63.0 55.9 78% 62 NA 30.01 1017.4
7:51 am EDT SW 6.9 10.00 Fair -- 60.0 55.0 84% 59 NA 30.01 1017.6
6:51 am EDT SW 5.8 10.00 Fair -- 57.0 54.0 90% 56 NA 30.02 1017.7
5:51 am EDT SW 3.5 10.00 Fair -- 58.0 55.0 90% NA NA 30.02 1017.7
4:51 am EDT S 8.1 10.00 Fair -- 59.0 55.0 87% 58 NA 30.02 1017.7
3:51 am EDT S 5.8 10.00 Fair -- 57.0 55.0 93% 56 NA 30.03 1018.1
2:51 am EDT N 0.0 10.00 Fair -- 57.0 55.0 93% NA NA 30.04 1018.3

Regional Weather Observation


Manchester Airport, NH (KMHT)

Overcast
62.0 F

Fitchburg, Fitchburg Municipal Airport, MA (KFIT)

Mostly Cloudy
58.0 F

Laurence G Hanscom Field Airport, MA (KBED)

Fair
60.0 F

Boston, Logan International Airport, MA (KBOS)

Overcast
61.0 F

Worcester, Worcester Regional Airport, MA (KORH)

Fair
58.0 F

East Milton, MA (KMQE)

NULL
59.0 F